Location: Washington
(38.8950°N, 77.0370°W)
Time: 23:46:02
(UTC-04:00)

ISS - All Passes

Search period start: 18 September 2014 00:00
Search period end: 28 September 2014 00:00
Orbit: 414 x 417 km, 51.6° (Epoch: 18 September)

Date Brightness Start Highest point End Pass type
(mag) Time Alt. Az. Time Alt. Az. Time Alt. Az.
18 Sep - 03:15:13 10° SSW 03:18:22 41° SE 03:21:32 10° ENE visible
18 Sep - 04:52:23 10° W 04:55:11 24° NNW 04:57:59 10° NNE visible
18 Sep - 08:09:31 10° N 08:10:49 12° NNE 08:12:06 10° NE daylight
18 Sep - 09:45:07 10° NW 09:48:16 38° NNE 09:51:24 10° ESE daylight
18 Sep - 11:22:12 10° W 11:24:49 22° SW 11:27:26 10° S daylight
19 Sep - 02:27:03 10° S 02:29:43 23° SE 02:32:24 10° ENE night (unlit)
19 Sep - 04:03:10 10° WSW 04:06:17 37° NNW 04:09:25 10° NE visible
19 Sep - 05:42:31 10° NW 05:43:45 12° NNW 05:45:00 10° N visible
19 Sep - 07:21:26 10° N 07:21:43 10° N 07:22:00 10° NNE daylight
19 Sep - 08:56:32 10° NNW 08:59:22 25° NNE 09:02:11 10° E daylight
19 Sep - 10:33:02 10° WNW 10:36:10 39° SW 10:39:17 10° SSE daylight
20 Sep - 01:39:34 10° SSE 01:41:06 13° SE 01:42:37 10° E night (unlit)
20 Sep - 03:14:07 10° WSW 03:17:25 63° NW 03:20:44 10° NE visible
20 Sep - 04:52:46 10° NW 04:54:40 14° NNW 04:56:35 10° NNE visible
20 Sep - 08:07:59 10° NNW 08:10:22 18° NNE 08:12:45 10° ENE daylight
20 Sep - 09:44:05 10° NW 09:47:25 76° SW 09:50:43 10° SE daylight
21 Sep - 02:25:17 10° SW 02:28:35 70° SE 02:31:54 10° NE night (unlit)
21 Sep - 04:03:09 10° WNW 04:05:35 19° NNW 04:08:03 10° NNE visible
21 Sep - 07:19:27 10° NNW 07:21:17 14° NNE 07:23:07 10° NE daylight
21 Sep - 08:55:16 10° NW 08:58:33 59° NE 09:01:50 10° ESE daylight
21 Sep - 10:33:11 10° W 10:34:54 14° SW 10:36:38 10° SSW daylight
22 Sep - 01:36:41 10° SSW 01:39:46 36° SE 01:42:52 10° ENE night (unlit)
22 Sep - 03:13:40 10° W 03:16:32 26° NNW 03:19:25 10° NNE visible
22 Sep - 04:53:39 10° NNW 04:54:09 10° N 04:54:40 10° N visible
22 Sep - 06:30:58 10° N 06:32:07 11° NNE 06:33:15 10° NNE visible
22 Sep - 08:06:30 10° NW 08:09:36 35° NNE 08:12:41 10° E daylight
22 Sep - 09:43:26 10° WNW 09:46:12 24° SW 09:48:57 10° S daylight
23 Sep - 00:48:29 10° S 00:51:00 20° SE 00:53:31 10° E night (unlit)
23 Sep - 02:24:20 10° WSW 02:27:30 40° NNW 02:30:41 10° NE night (unlit)
23 Sep - 04:03:32 10° NW 04:04:56 12° NNW 04:06:19 10° N visible
23 Sep - 07:17:48 10° NNW 07:20:33 23° NNE 07:23:17 10° E daylight
23 Sep - 08:54:11 10° WNW 08:57:23 45° SW 09:00:34 10° SSE daylight
24 Sep - 00:01:15 10° SE 00:02:15 11° SE 00:03:15 10° ESE night (unlit)
24 Sep - 01:35:12 10° WSW 01:38:31 72° NW 01:41:51 10° NE night (unlit)
24 Sep - 03:13:40 10° WNW 03:15:42 15° NNW 03:17:44 10° NNE visible
24 Sep - 06:29:07 10° NNW 06:31:24 17° NNE 06:33:40 10° ENE visible
24 Sep - 08:05:09 10° NW 08:08:29 87° SW 08:11:48 10° SE daylight
25 Sep - 00:46:16 10° SW 00:49:33 61° SE 00:52:51 10° ENE night (unlit)
25 Sep - 02:23:57 10° WNW 02:26:30 20° NNW 02:29:03 10° NNE night (unlit)
25 Sep - 05:40:27 10° NNW 05:42:09 13° NNE 05:43:51 10° NE visible
25 Sep - 07:16:12 10° NW 07:19:28 52° NE 07:22:43 10° ESE daylight
25 Sep - 08:53:49 10° W 08:55:52 15° SW 08:57:54 10° SSW daylight
25 Sep - 23:57:37 10° SSW 00:00:37 32° SE 00:03:38 10° ENE night (unlit)
26 Sep - 01:34:22 10° W 01:37:19 29° NNW 01:40:16 10° NNE night (unlit)
26 Sep - 03:14:08 10° NNW 03:14:53 11° N 03:15:38 10° N night (unlit)
26 Sep - 04:51:52 10° N 04:52:50 11° N 04:53:48 10° NNE visible
26 Sep - 06:27:20 10° NW 06:30:22 31° NNE 06:33:23 10° E visible
26 Sep - 08:04:06 10° WNW 08:07:00 28° SW 08:09:52 10° SSE daylight
26 Sep - 23:09:24 10° S 23:11:43 18° SE 23:14:02 10° E night (unlit)
27 Sep - 00:44:57 10° WSW 00:48:10 45° NW 00:51:23 10° NE night (unlit)
27 Sep - 02:23:58 10° NW 02:25:31 13° NNW 02:27:04 10° NNE night (unlit)
27 Sep - 05:38:30 10° NNW 05:41:09 22° NNE 05:43:48 10° ENE visible
27 Sep - 07:14:47 10° WNW 07:18:02 52° SW 07:21:16 10° SE daylight
27 Sep - 23:55:43 10° SW 23:59:02 82° NW 00:00:00 44° NE night (unlit)
